User: anonymous   Login
Location: Newark
(35.8833°N, 14.5000°E)
Time: 02:57:56
(UTC+00:00)
Language:

CUTE-I - Orbit

View from above orbital plane
View from above orbital plane
View from above satellite
View from above satellite

Ground track
Ground track

The orbit data is extracted from the following two-line orbital elements,

1 27844U 03031E   19325.48639045  .00000058  00000-0  45781-4 0  9993
2 27844  98.6844 331.3732 0008940 303.7672  56.2654 14.22206465850437
Epoch (UTC): 21 November 2019 11:40:24
Eccentricity: 0.0008940
inclination: 98.6844°
perigee height: 811 km
apogee height: 824 km
right ascension of ascending node: 331.3732°
argument of perigee: 303.7672°
revolutions per day: 14.22206465
mean anomaly at epoch: 56.2654°
orbit number at epoch: 85043

The dashed part of the orbit path shows where the satellite is in the earth's shadow,  

DLR